Location: Newark
(43.0000°N, 1.6781°W)
Time: 10:01:48
(UTC+00:00)

PRISM - Visible Passes

Search period start: 30 November 2022 00:00
Search period end: 10 December 2022 00:00
Orbit: 550 x 573 km, 98.3° (Epoch: 29 November)

Date Brightness Start Highest point End Pass type
(mag) Time Alt. Az. Time Alt. Az. Time Alt. Az.
30 Nov ? 05:00:00 10° NE 05:02:53 18° E 05:05:45 10° SE visible
30 Nov ? 06:34:09 10° N 06:37:53 36° WNW 06:41:37 10° SW visible
30 Nov ? 17:21:13 10° S 17:25:02 47° W 17:28:54 10° NNW visible
01 Dec ? 04:59:24 10° NE 05:02:14 18° E 05:05:04 10° SE visible
01 Dec ? 06:33:30 10° N 06:37:15 37° WNW 06:41:01 10° SW visible
01 Dec ? 17:20:34 10° S 17:24:23 48° W 17:28:16 10° NNW visible
02 Dec ? 04:58:48 10° NE 05:01:35 18° E 05:04:22 10° SE visible
02 Dec ? 06:32:50 10° N 06:36:37 38° WNW 06:40:24 10° SW visible
02 Dec ? 17:19:53 10° S 17:23:44 50° W 17:27:38 10° NNW visible
03 Dec ? 04:58:12 10° NE 05:00:56 17° E 05:03:40 10° SE visible
03 Dec ? 06:32:10 10° N 06:35:59 39° WNW 06:39:46 10° SW visible
03 Dec ? 17:19:13 10° S 17:23:04 51° W 17:26:59 10° NNW visible
04 Dec ? 04:57:35 10° NE 05:00:15 17° E 05:02:56 10° SE visible
04 Dec ? 06:31:29 10° N 06:35:19 40° WNW 06:39:08 10° SW visible
04 Dec ? 17:18:32 10° S 17:22:24 53° W 17:26:20 10° NNW visible
05 Dec ? 04:56:57 10° NE 04:59:35 17° E 05:02:12 10° SE visible
05 Dec ? 06:30:49 10° N 06:34:39 41° WNW 06:38:29 10° SW visible
05 Dec ? 17:17:50 10° S 17:21:44 54° W 17:25:40 10° NNW visible
06 Dec ? 04:56:19 10° NE 04:58:54 16° E 05:01:27 10° SE visible
06 Dec ? 06:30:07 10° N 06:33:59 42° WNW 06:37:50 10° SW visible
06 Dec ? 17:17:08 10° S 17:21:02 56° W 17:24:59 10° NNW visible
07 Dec ? 04:55:41 10° NE 04:58:12 16° E 05:00:42 10° SE visible
07 Dec ? 06:29:26 10° N 06:33:18 43° WNW 06:37:09 10° SW visible
07 Dec ? 17:16:26 10° S 17:20:20 58° W 17:24:19 10° NNW visible
08 Dec ? 04:55:03 10° NE 04:57:30 15° E 04:59:56 10° SE visible
08 Dec ? 06:28:43 10° N 06:32:36 44° WNW 06:36:29 10° SW visible
08 Dec ? 17:15:43 10° S 17:19:38 59° W 17:23:37 10° NNW visible
09 Dec ? 04:54:24 10° ENE 04:56:46 15° E 04:59:09 10° SE visible
09 Dec ? 06:27:59 10° N 06:31:54 45° WNW 06:35:48 10° SW visible
09 Dec ? 17:15:00 10° S 17:18:55 61° WSW 17:22:55 10° NNW visible
